Volver al catálogo

STARLINK-32438

ActivoComunicacionesVLEO
NORAD 61722·PAYLOAD·🇺🇸 United States

Lanzado Oct 30, 2024 desde Cape Canaveral Space Force Station

Loading…

Próximos Pases (próximas 24 horas)

TLE

ActualizadoSource: CelesTrak SupGP

Época: Sep 15, 2026, 02:31 UTC

1 61722C 24196R   26258.10534722  .00032356  00000+0  95586-3 0  2589
2 61722  53.1591 298.9202 0001234  89.2871 272.7927 15.34377541    18

Sigue STARLINK-32438 en tiempo real con AllMySat

Download on the App Store